Location: Newark
(52.3500°N, 175.9667°E)
Time: 13:37:02
(UTC+00:00)

N. Korean satellite - Pass Details

Date: 22 November 2019
Orbit: 456 x 506 km, 97.2° (Epoch: 09 December)

Event Time Altitude Azimuth Distance (km) Brightness Sun altitude
Rises 17:23:33 0° 24° (NNE) 2,618 10.5 -21.7°
Reaches altitude 10° 17:26:01 10° 40° (NE) 1,722 9.8 -21.3°
Maximum altitude 17:28:57 22° 92° (E) 1,146 9.3 -20.9°
Drops below altitude 10° 17:31:49 10° 144° (SE) 1,692 9.9 -20.4°
Sets 17:34:13 0° 161° (SSE) 2,559 10.6 -20.1°
